EST,Max TemperatureF,Mean TemperatureF,Min TemperatureF,Max Dew PointF,MeanDew PointF,Min DewpointF,Max Humidity, Mean Humidity, Min Humidity, Max Sea Level PressureIn, Mean Sea Level PressureIn, Min Sea Level PressureIn, Max VisibilityMiles, Mean VisibilityMiles, Min VisibilityMiles, Max Wind SpeedMPH, Mean Wind SpeedMPH, Max Gust SpeedMPH,PrecipitationIn, CloudCover, Events, WindDirDegrees
2012-2-1,27,24,21,25,21,18,92,87,81,30.05,29.87,29.75,10,7,2,13,6,15,0.12,8,Rain-Snow,354
2012-2-2,26,21,16,18,16,10,84,76,68,30.23,30.11,29.92,10,10,9,17,8,20,T,6,Snow,8
2012-2-3,28,19,10,15,10,6,83,63,42,30.33,30.26,30.20,10,10,10,22,6,25,0.00,5,,322
2012-2-4,30,23,15,15,11,6,77,60,43,30.19,30.14,30.09,10,10,10,21,6,25,0.00,2,,306
2012-2-5,28,17,6,11,5,2,80,56,31,30.16,30.07,29.94,10,10,10,17,5,21,0.00,2,,292
2012-2-6,44,33,21,25,21,11,72,56,40,29.93,29.79,29.71,10,10,10,18,7,26,0.00,5,,233
2012-2-7,38,28,17,26,16,2,70,57,43,30.22,29.98,29.80,10,10,10,23,8,29,0.00,4,,311
2012-2-8,31,20,8,16,5,-1,73,52,31,30.28,30.17,30.02,10,10,10,16,5,21,0.00,1,,214
2012-2-9,40,27,13,20,14,9,84,58,32,30.05,29.99,29.91,10,10,10,10,2,14,0.00,2,,320
2012-2-10,43,29,14,32,22,10,89,70,51,30.08,29.98,29.84,10,10,10,20,3,25,0.00,2,,177
2012-2-11,32,24,16,29,22,6,100,82,63,29.85,29.70,29.52,10,5,1,23,8,31,0.01,8,Snow,10
2012-2-12,17,10,2,6,-5,-12,69,55,40,29.77,29.61,29.52,10,10,10,29,15,37,0.00,0,,309
2012-2-13,26,14,2,6,1,-9,70,52,33,29.97,29.79,29.73,10,10,10,17,6,26,0.00,4,,241
2012-2-14,39,25,11,24,16,6,81,65,48,30.12,30.06,29.99,10,10,10,15,3,18,0.00,6,,167
2012-2-15,42,32,22,27,24,20,96,75,53,30.22,30.18,30.12,10,10,10,6,0,6,0.00,6,,210
2012-2-16,44,36,28,32,28,26,92,71,49,30.27,30.18,30.05,10,10,9,9,1,12,0.00,7,,162
2012-2-17,41,36,31,37,34,25,100,88,76,30.03,29.89,29.79,10,8,2,12,5,15,0.10,8,Rain,183
2012-2-18,41,34,26,26,21,18,78,61,44,29.86,29.79,29.74,10,10,10,17,6,24,0.00,5,,270
2012-2-19,37,29,21,18,13,9,75,54,32,30.01,29.96,29.87,10,10,10,23,8,29,0.00,0,,298
2012-2-20,33,26,19,12,8,6,68,51,33,30.25,30.08,30.00,10,10,10,24,11,29,0.00,0,,316
2012-2-21,37,24,11,31,17,8,84,60,35,30.31,30.13,29.89,10,9,1,16,5,23,0.04,4,Snow,188
2012-2-22,44,37,29,37,32,30,100,88,76,29.87,29.66,29.50,10,6,0,12,4,15,0.03,7,Fog-Snow,189
2012-2-23,43,38,32,40,35,24,100,82,64,29.68,29.43,29.30,10,8,2,16,6,22,0.50,6,Rain,237
2012-2-24,41,34,27,32,28,23,89,72,54,29.81,29.57,29.22,10,5,0,16,5,21,0.34,7,Fog-Rain-Snow,117
2012-2-25,37,33,29,31,27,18,92,76,59,29.52,29.12,28.96,10,6,0,23,11,31,0.37,7,Fog-Snow,282
2012-2-26,30,24,18,17,8,3,68,52,36,30.41,30.06,29.56,10,10,10,30,14,45,0.00,2,,306
2012-2-27,27,19,10,22,13,2,88,67,46,30.47,30.27,30.01,10,6,0,13,5,16,0.04,7,Fog-Snow,79
2012-2-28,29,21,12,21,15,7,100,75,50,30.39,30.19,29.99,10,9,2,28,9,33,T,5,Snow,324
2012-2-29,33,18,2,12,7,-1,88,61,33,30.39,30.29,30.17,10,10,10,13,2,17,0.00,3,,14